QPF
0.00 0.00 0.00 0.00 0.00 0.00 0.00 0.00 0.00 0.01 0.00 0.00 0.00 0.01 0.01 0.02 0.03 0.05 0.06 0.08 0.11 0.12 0.15 0.19 0.18 0.21 0.24 0.20 0.19 0.18 0.14 0.11 0.07 0.04 0.03 0.02 0.02 0.02 0.01 0.01 0.01 0.01 0.01 0.01
0.00 0.00 0.00 0.00 0.00 0.00 0.00 0.00 0.00 0.00 0.00 0.01 0.01 0.01 0.01 0.02 0.02 0.03 0.04 0.06 0.09 0.09 0.13 0.13 0.12 0.12 0.16 0.14 0.12 0.14 0.11 0.08 0.05 0.04 0.03 0.03 0.02 0.02 0.01 0.00 0.00 0.00 0.00 0.01
0.00 0.00 0.00 0.00 0.00 0.00 0.01 0.01 0.00 0.00 0.00 0.00 0.01 0.01 0.01 0.01 0.02 0.03 0.04 0.06 0.07 0.09 0.11 0.09 0.08 0.08 0.08 0.09 0.08 0.08 0.07 0.06 0.06 0.06 0.04 0.03 0.02 0.01 0.01 0.00 0.00 0.00 0.01 0.02
0.00 0.00 0.00 0.00 0.00 0.00 0.01 0.01 0.00 0.01 0.01 0.01 0.01 0.01 0.01 0.01 0.02 0.03 0.03 0.04 0.05 0.07 0.08 0.07 0.07 0.07 0.06 0.06 0.07 0.06 0.05 0.05 0.05 0.05 0.03 0.02 0.01 0.00 0.00 0.00 0.00 0.00 0.00 0.01
0.00 0.00 0.00 0.00 0.00 0.00 0.01 0.01 0.01 0.01 0.01 0.00 0.00 0.01 0.00 0.01 0.01 0.02 0.02 0.01 0.03 0.04 0.04 0.04 0.04 0.05 0.06 0.06 0.05 0.05 0.04 0.03 0.03 0.02 0.02 0.01 0.00 0.00 0.00 0.00 0.00 0.00 0.00 0.00
0.00 0.00 0.00 0.00 0.00 0.00 0.00 0.01 0.01 0.02 0.01 0.00 0.00 0.00 0.00 0.01 0.01 0.01 0.01 0.01 0.02 0.02 0.03 0.03 0.03 0.03 0.04 0.04 0.04 0.03 0.01 0.01 0.01 0.01 0.01 0.00 0.00 0.00 0.00 0.00 0.00 0.00 0.00 0.00
0.00 0.00 0.00 0.00 0.00 0.01 0.01 0.00 0.01 0.01 0.00 0.00 0.00 0.00 0.00 0.00 0.00 0.00 0.01 0.01 0.02 0.02 0.03 0.01 0.01 0.01 0.01 0.02 0.02 0.01 0.00 0.00 0.01 0.01 0.01 0.00 0.00 0.00 0.00 0.00 0.00 0.00 0.00 0.00
0.00 0.00 0.00 0.01 0.01 0.01 0.01 0.00 0.01 0.01 0.00 0.00 0.00 0.00 0.00 0.00 0.00 0.00 0.00 0.01 0.01 0.02 0.02 0.01 0.01 0.00 0.00 0.01 0.01 0.01 0.00 0.00 0.00 0.00 0.01 0.00 0.00 0.00 0.00 0.00 0.00 0.00 0.00 0.00
0.00 0.00 0.00 0.01 0.01 0.01 0.01 0.01 0.01 0.01 0.00 0.00 0.00 0.00 0.00 0.00 0.00 0.00 0.00 0.00 0.01 0.01 0.01 0.00 0.00 0.00 0.00 0.00 0.00 0.00 0.00 0.00 0.00 0.00 0.00 0.00 0.00 0.00 0.00 0.00 0.00 0.00 0.00 0.00
0.00 0.00 0.01 0.01 0.01 0.01 0.01 0.01 0.01 0.01 0.00 0.00 0.00 0.00 0.00 0.00 0.00 0.00 0.00 0.00 0.00 0.00 0.00 0.00 0.00 0.00 0.00 0.00 0.00 0.00 0.00 0.00 0.00 0.00 0.00 0.00 0.00 0.00 0.00 0.00 0.00 0.00 0.00 0.00
0.01 0.01 0.01 0.01 0.01 0.01 0.02 0.01 0.01 0.01 0.01 0.00 0.00 0.00 0.00 0.00 0.00 0.00 0.00 0.00 0.00 0.00 0.00 0.00 0.00 0.00 0.00 0.00 0.00 0.00 0.00 0.00 0.00 0.00 0.00 0.00 0.00 0.00 0.00 0.00 0.00 0.00 0.00 0.00
0.01 0.00 0.01 0.01 0.01 0.01 0.01 0.00 0.00 0.00 0.00 0.00 0.00 0.00 0.00 0.00 0.00 0.00 0.00 0.00 0.00 0.00 0.00 0.00 0.00 0.00 0.00 0.00 0.00 0.00 0.00 0.00 0.00 0.00 0.00 0.00 0.00 0.00 0.00 0.00 0.00 0.00 0.00 0.00
0.01 0.00 0.00 0.01 0.01 0.01 0.01 0.00 0.00 0.00 0.00 0.00 0.00 0.00 0.00 0.00 0.00 0.00 0.00 0.00 0.00 0.00 0.00 0.00 0.00 0.00 0.00 0.00 0.00 0.00 0.00 0.00 0.00 0.00 0.00 0.00 0.00 0.00 0.00 0.00 0.00 0.00 0.00 0.00
0.00 0.00 0.00 0.00 0.01 0.01 0.00 0.00 0.00 0.00 0.00 0.00 0.00 0.00 0.00 0.01 0.01 0.00 0.00 0.00 0.00 0.00 0.00 0.00 0.00 0.00 0.00 0.00 0.00 0.00 0.00 0.00 0.00 0.00 0.00 0.00 0.00 0.00 0.00 0.00 0.00 0.00 0.00 0.00
0.01 0.01 0.00 0.00 0.01 0.01 0.00 0.01 0.00 0.01 0.00 0.00 0.00 0.00 0.00 0.00 0.00 0.00 0.00 0.00 0.00 0.00 0.00 0.00 0.00 0.00 0.00 0.00 0.00 0.00 0.00 0.00 0.00 0.00 0.00 0.00 0.00 0.00 0.00 0.00 0.00 0.00 0.00 0.00
0.01 0.01 0.01 0.00 0.00 0.00 0.01 0.01 0.00 0.01 0.00 0.00 0.00 0.00 0.00 0.00 0.00 0.00 0.01 0.01 0.00 0.00 0.00 0.00 0.00 0.00 0.00 0.00 0.00 0.00 0.00 0.00 0.00 0.00 0.00 0.00 0.00 0.00 0.00 0.00 0.00 0.00 0.00 0.00
0.01 0.01 0.01 0.00 0.01 0.00 0.00 0.00 0.00 0.00 0.00 0.00 0.00 0.00 0.00 0.00 0.00 0.01 0.02 0.02 0.01 0.01 0.01 0.01 0.00 0.00 0.01 0.00 0.00 0.00 0.00 0.00 0.01 0.01 0.00 0.00 0.00 0.00 0.00 0.00 0.00 0.01 0.01 0.00
0.01 0.01 0.01 0.01 0.01 0.01 0.00 0.00 0.00 0.01 0.00 0.00 0.00 0.00 0.01 0.01 0.01 0.02 0.02 0.02 0.02 0.01 0.01 0.01 0.01 0.01 0.01 0.01 0.01 0.01 0.01 0.01 0.01 0.01 0.01 0.01 0.01 0.01 0.01 0.01 0.00 0.01 0.00 0.00
0.01 0.01 0.01 0.01 0.01 0.00 0.00 0.01 0.01 0.02 0.01 0.01 0.01 0.01 0.01 0.02 0.02 0.02 0.02 0.01 0.02 0.01 0.01 0.01 0.01 0.01 0.01 0.01 0.01 0.02 0.02 0.02 0.02 0.02 0.02 0.01 0.01 0.00 0.00 0.00 0.00 0.00 0.00 0.00
0.01 0.01 0.02 0.01 0.01 0.01 0.00 0.01 0.02 0.02 0.01 0.01 0.01 0.01 0.02 0.03 0.03 0.03 0.02 0.02 0.02 0.02 0.02 0.02 0.01 0.01 0.01 0.01 0.01 0.01 0.01 0.01 0.01 0.01 0.00 0.00 0.00 0.00 0.00 0.00 0.00 0.00 0.00 0.00
0.02 0.02 0.02 0.02 0.02 0.01 0.01 0.01 0.02 0.03 0.01 0.01 0.01 0.01 0.02 0.02 0.02 0.02 0.02 0.02 0.03 0.03 0.03 0.02 0.01 0.01 0.01 0.01 0.01 0.01 0.01 0.01 0.01 0.01 0.00 0.00 0.01 0.01 0.00 0.00 0.01 0.00 0.01 0.00
0.02 0.03 0.03 0.03 0.02 0.01 0.01 0.02 0.03 0.03 0.01 0.01 0.02 0.02 0.03 0.03 0.03 0.02 0.02 0.02 0.02 0.02 0.03 0.03 0.02 0.02 0.02 0.02 0.01 0.01 0.01 0.01 0.01 0.01 0.01 0.01 0.01 0.01 0.00 0.00 0.00 0.00 0.00 0.00
0.02 0.02 0.03 0.03 0.02 0.02 0.02 0.02 0.03 0.02 0.02 0.02 0.02 0.02 0.02 0.03 0.03 0.02 0.02 0.01 0.01 0.01 0.02 0.02 0.02 0.02 0.01 0.01 0.01 0.01 0.02 0.03 0.03 0.03 0.02 0.02 0.01 0.01 0.01 0.00 0.00 0.00 0.00 0.00
0.01 0.01 0.02 0.01 0.01 0.02 0.02 0.02 0.02 0.02 0.02 0.03 0.02 0.02 0.02 0.03 0.03 0.03 0.03 0.02 0.02 0.02 0.02 0.02 0.01 0.01 0.02 0.02 0.02 0.03 0.04 0.04 0.04 0.03 0.03 0.03 0.02 0.02 0.01 0.01 0.00 0.00 0.00 0.00
0.01 0.02 0.03 0.02 0.02 0.02 0.02 0.02 0.02 0.02 0.03 0.03 0.02 0.02 0.02 0.02 0.02 0.02 0.02 0.02 0.01 0.02 0.02 0.02 0.02 0.03 0.02 0.03 0.03 0.04 0.04 0.04 0.04 0.03 0.03 0.03 0.02 0.02 0.01 0.01 0.01 0.01 0.01 0.01
0.02 0.02 0.03 0.03 0.03 0.03 0.04 0.05 0.04 0.04 0.03 0.03 0.02 0.03 0.03 0.03 0.02 0.02 0.01 0.01 0.01 0.02 0.02 0.02 0.03 0.04 0.04 0.05 0.05 0.05 0.04 0.03 0.03 0.03 0.02 0.02 0.02 0.02 0.01 0.01 0.00 0.00 0.00 0.00
MSLP
1012.08 1012.62 1012.99 1013.20 1013.32 1013.41 1013.53 1013.72 1013.97 1014.27 1014.56 1014.78 1014.90 1014.89 1014.75 1014.51 1014.23 1013.95 1013.75 1013.64 1013.63 1013.72 1013.86 1014.04 1014.21 1014.35 1014.46 1014.56 1014.66 1014.80 1014.99 1015.24 1015.54 1015.88 1016.21 1016.50 1016.74 1016.91 1017.01 1017.07 1017.10 1017.16 1017.26 1017.42
1012.35 1012.77 1013.02 1013.14 1013.22 1013.33 1013.53 1013.83 1014.23 1014.67 1015.07 1015.36 1015.48 1015.43 1015.21 1014.86 1014.47 1014.11 1013.83 1013.68 1013.66 1013.75 1013.90 1014.08 1014.23 1014.35 1014.43 1014.49 1014.57 1014.70 1014.91 1015.21 1015.56 1015.96 1016.34 1016.68 1016.93 1017.09 1017.16 1017.18 1017.18 1017.20 1017.28 1017.44
1012.37 1012.65 1012.78 1012.84 1012.91 1013.07 1013.38 1013.84 1014.40 1014.99 1015.50 1015.85 1015.99 1015.89 1015.57 1015.12 1014.62 1014.16 1013.82 1013.63 1013.60 1013.69 1013.86 1014.05 1014.20 1014.31 1014.36 1014.40 1014.46 1014.59 1014.83 1015.16 1015.58 1016.03 1016.48 1016.87 1017.15 1017.32 1017.39 1017.38 1017.35 1017.35 1017.41 1017.55
1012.17 1012.33 1012.36 1012.38 1012.47 1012.73 1013.18 1013.81 1014.54 1015.28 1015.90 1016.30 1016.42 1016.26 1015.85 1015.28 1014.66 1014.11 1013.70 1013.48 1013.44 1013.56 1013.75 1013.96 1014.13 1014.24 1014.29 1014.32 1014.37 1014.50 1014.75 1015.12 1015.58 1016.10 1016.61 1017.05 1017.39 1017.58 1017.66 1017.66 1017.62 1017.59 1017.63 1017.75
1011.89 1011.92 1011.89 1011.89 1012.04 1012.41 1013.01 1013.81 1014.71 1015.58 1016.29 1016.71 1016.81 1016.56 1016.04 1015.34 1014.61 1013.96 1013.49 1013.25 1013.22 1013.36 1013.60 1013.85 1014.05 1014.18 1014.24 1014.27 1014.32 1014.45 1014.71 1015.10 1015.60 1016.16 1016.72 1017.22 1017.60 1017.84 1017.95 1017.96 1017.93 1017.90 1017.92 1018.01
1011.61 1011.55 1011.48 1011.50 1011.73 1012.22 1012.97 1013.93 1014.97 1015.94 1016.69 1017.11 1017.15 1016.80 1016.16 1015.33 1014.48 1013.74 1013.22 1012.95 1012.94 1013.12 1013.41 1013.72 1013.98 1014.15 1014.23 1014.27 1014.33 1014.46 1014.71 1015.10 1015.62 1016.21 1016.81 1017.35 1017.78 1018.06 1018.21 1018.26 1018.24 1018.22 1018.23 1018.30
1011.42 1011.30 1011.22 1011.29 1011.60 1012.21 1013.10 1014.18 1015.32 1016.34 1017.10 1017.47 1017.42 1016.96 1016.19 1015.23 1014.28 1013.46 1012.89 1012.62 1012.62 1012.85 1013.21 1013.59 1013.92 1014.14 1014.27 1014.33 1014.39 1014.52 1014.76 1015.15 1015.65 1016.24 1016.85 1017.42 1017.89 1018.22 1018.42 1018.50 1018.52 1018.52 1018.53 1018.59
1011.32 1011.18 1011.12 1011.25 1011.66 1012.38 1013.37 1014.53 1015.71 1016.73 1017.45 1017.75 1017.59 1017.00 1016.10 1015.04 1013.99 1013.11 1012.51 1012.24 1012.28 1012.56 1012.99 1013.44 1013.84 1014.13 1014.31 1014.41 1014.49 1014.62 1014.85 1015.21 1015.69 1016.26 1016.87 1017.44 1017.93 1018.29 1018.53 1018.66 1018.71 1018.74 1018.76 1018.82
1011.27 1011.14 1011.13 1011.34 1011.85 1012.65 1013.70 1014.89 1016.06 1017.04 1017.67 1017.86 1017.58 1016.88 1015.88 1014.73 1013.61 1012.70 1012.09 1011.82 1011.90 1012.23 1012.72 1013.24 1013.72 1014.08 1014.32 1014.47 1014.58 1014.71 1014.93 1015.27 1015.72 1016.26 1016.84 1017.40 1017.89 1018.28 1018.54 1018.71 1018.80 1018.86 1018.90 1018.97
1011.16 1011.09 1011.17 1011.47 1012.05 1012.91 1013.99 1015.17 1016.28 1017.16 1017.68 1017.75 1017.36 1016.56 1015.48 1014.27 1013.14 1012.21 1011.60 1011.36 1011.46 1011.83 1012.37 1012.95 1013.49 1013.92 1014.23 1014.44 1014.59 1014.75 1014.97 1015.30 1015.72 1016.23 1016.78 1017.31 1017.79 1018.18 1018.46 1018.66 1018.78 1018.86 1018.93 1019.01
1010.95 1010.97 1011.14 1011.53 1012.19 1013.08 1014.14 1015.25 1016.26 1017.02 1017.41 1017.36 1016.87 1016.01 1014.89 1013.68 1012.55 1011.65 1011.07 1010.85 1010.97 1011.36 1011.92 1012.53 1013.12 1013.60 1013.98 1014.25 1014.46 1014.67 1014.92 1015.25 1015.67 1016.15 1016.66 1017.17 1017.63 1018.01 1018.30 1018.50 1018.65 1018.76 1018.85 1018.94
1010.59 1010.72 1011.01 1011.49 1012.19 1013.08 1014.08 1015.10 1015.97 1016.59 1016.85 1016.70 1016.14 1015.25 1014.15 1012.97 1011.90 1011.04 1010.50 1010.29 1010.42 1010.80 1011.35 1011.97 1012.57 1013.10 1013.53 1013.88 1014.17 1014.44 1014.75 1015.12 1015.54 1016.02 1016.51 1016.99 1017.42 1017.78 1018.07 1018.28 1018.44 1018.56 1018.68 1018.78
1010.16 1010.41 1010.80 1011.36 1012.08 1012.93 1013.85 1014.73 1015.45 1015.92 1016.05 1015.81 1015.22 1014.34 1013.29 1012.20 1011.20 1010.42 1009.91 1009.73 1009.83 1010.18 1010.69 1011.28 1011.88 1012.42 1012.90 1013.32 1013.69 1014.06 1014.44 1014.87 1015.33 1015.82 1016.31 1016.77 1017.18 1017.52 1017.79 1018.00 1018.17 1018.30 1018.43 1018.55
1009.78 1010.14 1010.61 1011.20 1011.91 1012.69 1013.48 1014.21 1014.76 1015.08 1015.09 1014.78 1014.18 1013.36 1012.39 1011.41 1010.52 1009.82 1009.36 1009.18 1009.26 1009.54 1009.98 1010.51 1011.06 1011.60 1012.11 1012.59 1013.06 1013.53 1014.01 1014.51 1015.04 1015.56 1016.06 1016.51 1016.90 1017.23 1017.49 1017.69 1017.86 1018.00 1018.14 1018.27
1009.57 1010.01 1010.53 1011.12 1011.77 1012.44 1013.08 1013.63 1014.00 1014.16 1014.07 1013.72 1013.13 1012.38 1011.53 1010.67 1009.90 1009.29 1008.88 1008.70 1008.72 1008.92 1009.27 1009.71 1010.20 1010.71 1011.23 1011.77 1012.32 1012.89 1013.47 1014.07 1014.66 1015.23 1015.75 1016.21 1016.60 1016.91 1017.16 1017.36 1017.52 1017.68 1017.82 1017.96
1009.66 1010.13 1010.64 1011.18 1011.73 1012.26 1012.72 1013.06 1013.26 1013.27 1013.08 1012.69 1012.14 1011.48 1010.75 1010.04 1009.39 1008.87 1008.50 1008.30 1008.27 1008.38 1008.61 1008.94 1009.35 1009.81 1010.34 1010.91 1011.53 1012.19 1012.87 1013.56 1014.23 1014.85 1015.40 1015.87 1016.26 1016.57 1016.81 1017.00 1017.17 1017.33 1017.48 1017.62
1010.06 1010.51 1010.96 1011.41 1011.81 1012.16 1012.42 1012.56 1012.58 1012.44 1012.17 1011.77 1011.27 1010.70 1010.10 1009.52 1009.00 1008.57 1008.24 1008.02 1007.92 1007.93 1008.05 1008.27 1008.58 1008.99 1009.49 1010.09 1010.76 1011.49 1012.25 1013.01 1013.74 1014.41 1015.00 1015.48 1015.88 1016.18 1016.42 1016.62 1016.80 1016.96 1017.12 1017.26
1010.70 1011.09 1011.43 1011.73 1011.96 1012.11 1012.16 1012.11 1011.96 1011.71 1011.38 1010.98 1010.53 1010.06 1009.59 1009.14 1008.73 1008.38 1008.08 1007.85 1007.69 1007.61 1007.62 1007.73 1007.95 1008.29 1008.76 1009.35 1010.05 1010.82 1011.63 1012.45 1013.23 1013.93 1014.54 1015.04 1015.44 1015.75 1015.99 1016.20 1016.38 1016.56 1016.72 1016.86
1011.43 1011.69 1011.90 1012.02 1012.06 1012.01 1011.88 1011.66 1011.37 1011.04 1010.67 1010.29 1009.91 1009.54 1009.19 1008.87 1008.56 1008.28 1008.01 1007.77 1007.57 1007.41 1007.33 1007.34 1007.48 1007.76 1008.18 1008.75 1009.44 1010.22 1011.06 1011.89 1012.69 1013.40 1014.02 1014.52 1014.93 1015.25 1015.50 1015.72 1015.91 1016.09 1016.26 1016.40
1012.02 1012.15 1012.19 1012.13 1011.99 1011.77 1011.48 1011.14 1010.77 1010.39 1010.03 1009.69 1009.39 1009.13 1008.89 1008.68 1008.47 1008.25 1008.02 1007.78 1007.55 1007.34 1007.18 1007.13 1007.19 1007.40 1007.77 1008.30 1008.96 1009.72 1010.54 1011.36 1012.14 1012.84 1013.45 1013.95 1014.36 1014.68 1014.94 1015.17 1015.37 1015.56 1015.73 1015.87
1012.29 1012.27 1012.15 1011.94 1011.65 1011.30 1010.91 1010.50 1010.10 1009.74 1009.42 1009.16 1008.95 1008.80 1008.68 1008.57 1008.44 1008.29 1008.10 1007.87 1007.63 1007.39 1007.19 1007.08 1007.08 1007.24 1007.55 1008.02 1008.62 1009.33 1010.10 1010.87 1011.61 1012.28 1012.86 1013.35 1013.74 1014.07 1014.33 1014.57 1014.78 1014.97 1015.13 1015.25
1012.15 1011.98 1011.72 1011.39 1011.00 1010.58 1010.16 1009.75 1009.39 1009.08 1008.85 1008.70 1008.61 1008.56 1008.55 1008.54 1008.49 1008.40 1008.25 1008.05 1007.81 1007.57 1007.35 1007.21 1007.18 1007.28 1007.53 1007.93 1008.46 1009.09 1009.78 1010.48 1011.15 1011.76 1012.29 1012.75 1013.12 1013.44 1013.70 1013.93 1014.14 1014.32 1014.47 1014.57
1011.57 1011.29 1010.94 1010.53 1010.11 1009.68 1009.29 1008.95 1008.67 1008.48 1008.37 1008.34 1008.37 1008.44 1008.53 1008.60 1008.63 1008.60 1008.50 1008.34 1008.13 1007.90 1007.69 1007.54 1007.48 1007.54 1007.73 1008.06 1008.50 1009.03 1009.62 1010.21 1010.79 1011.33 1011.80 1012.21 1012.55 1012.84 1013.09 1013.31 1013.50 1013.66 1013.78 1013.85
1010.69 1010.33 1009.92 1009.50 1009.09 1008.72 1008.42 1008.19 1008.05 1008.00 1008.04 1008.14 1008.29 1008.47 1008.65 1008.79 1008.89 1008.91 1008.86 1008.75 1008.58 1008.39 1008.20 1008.06 1008.00 1008.03 1008.17 1008.41 1008.76 1009.18 1009.64 1010.13 1010.60 1011.04 1011.44 1011.79 1012.09 1012.35 1012.57 1012.76 1012.92 1013.04 1013.12 1013.13
1009.68 1009.28 1008.87 1008.47 1008.13 1007.86 1007.69 1007.61 1007.62 1007.73 1007.90 1008.14 1008.40 1008.66 1008.91 1009.12 1009.27 1009.34 1009.34 1009.28 1009.17 1009.03 1008.89 1008.77 1008.71 1008.72 1008.81 1008.99 1009.23 1009.54 1009.88 1010.24 1010.60 1010.94 1011.26 1011.54 1011.79 1012.00 1012.18 1012.33 1012.44 1012.51 1012.52 1012.47
1008.76 1008.36 1007.98 1007.65 1007.41 1007.27 1007.23 1007.31 1007.47 1007.72 1008.02 1008.36 1008.70 1009.03 1009.33 1009.57 1009.76 1009.88 1009.93 1009.92 1009.87 1009.79 1009.70 1009.63 1009.58 1009.58 1009.63 1009.73 1009.89 1010.08 1010.31 1010.55 1010.80 1011.04 1011.27 1011.48 1011.67 1011.84 1011.97 1012.06 1012.11 1012.10 1012.03 1011.90
Thickness
5774 5759 5749 5753 5757 5758 5753 5745 5738 5743 5751 5741 5730 5727 5728 5729 5725 5721 5718 5717 5716 5715 5718 5721 5723 5724 5724 5723 5722 5723 5723 5722 5721 5719 5718 5716 5714 5714 5713 5712 5712 5711 5710 5709
5757 5752 5767 5771 5767 5759 5752 5741 5738 5742 5747 5738 5726 5724 5728 5728 5725 5722 5719 5717 5716 5715 5717 5719 5720 5722 5722 5721 5721 5722 5721 5720 5720 5719 5718 5716 5714 5712 5711 5710 5709 5709 5708 5706
5753 5765 5778 5772 5765 5755 5749 5742 5740 5735 5736 5732 5724 5716 5720 5726 5727 5725 5723 5720 5718 5719 5718 5719 5720 5720 5721 5720 5721 5722 5721 5719 5719 5719 5717 5715 5712 5710 5708 5707 5706 5706 5705 5704
5757 5771 5774 5768 5762 5759 5745 5757 5750 5738 5723 5711 5715 5697 5713 5719 5721 5724 5724 5721 5720 5722 5722 5721 5721 5721 5721 5722 5723 5722 5721 5719 5719 5718 5716 5713 5709 5706 5705 5705 5704 5704 5703 5702
5758 5770 5769 5762 5766 5765 5753 5755 5745 5733 5719 5708 5708 5697 5704 5717 5716 5722 5726 5726 5725 5724 5724 5723 5724 5724 5724 5724 5722 5721 5721 5719 5718 5717 5715 5712 5709 5706 5704 5703 5702 5701 5700 5699
5766 5776 5775 5771 5772 5768 5756 5743 5731 5717 5707 5698 5707 5698 5703 5712 5722 5728 5731 5731 5730 5729 5728 5727 5727 5726 5725 5724 5722 5721 5720 5718 5717 5715 5714 5712 5709 5705 5703 5701 5699 5698 5697 5696
5754 5765 5774 5776 5760 5756 5750 5725 5702 5699 5689 5694 5709 5703 5709 5732 5738 5738 5738 5737 5736 5735 5732 5729 5727 5726 5725 5724 5723 5721 5719 5717 5716 5714 5713 5711 5708 5705 5703 5700 5698 5696 5694 5693
5735 5738 5764 5770 5762 5748 5743 5731 5704 5693 5689 5695 5707 5704 5725 5745 5748 5747 5745 5743 5740 5737 5735 5734 5732 5730 5728 5726 5724 5722 5719 5717 5715 5714 5712 5710 5707 5705 5702 5700 5697 5695 5693 5691
5733 5737 5767 5773 5772 5759 5738 5728 5727 5703 5698 5693 5700 5714 5733 5746 5744 5744 5743 5741 5740 5739 5738 5736 5735 5732 5730 5728 5726 5724 5721 5718 5716 5713 5711 5708 5706 5704 5701 5698 5696 5694 5692 5690
5749 5739 5757 5767 5767 5758 5751 5732 5713 5700 5689 5688 5702 5709 5718 5736 5738 5741 5740 5741 5742 5742 5740 5738 5737 5735 5733 5731 5728 5725 5722 5719 5716 5713 5710 5708 5705 5703 5700 5697 5694 5692 5690 5688
5753 5738 5744 5752 5748 5742 5737 5728 5714 5699 5698 5688 5688 5708 5743 5746 5748 5746 5746 5747 5746 5745 5744 5742 5740 5738 5735 5732 5728 5725 5721 5718 5714 5712 5709 5707 5704 5701 5698 5695 5693 5691 5688 5685
5748 5733 5725 5738 5753 5756 5748 5735 5717 5706 5700 5692 5689 5710 5759 5756 5755 5754 5752 5753 5751 5750 5749 5746 5742 5738 5735 5731 5728 5725 5722 5718 5715 5712 5709 5705 5702 5699 5695 5693 5691 5688 5685 5682
5745 5728 5714 5719 5728 5741 5739 5733 5724 5711 5698 5687 5689 5716 5756 5756 5754 5755 5754 5754 5753 5750 5748 5745 5741 5738 5735 5732 5729 5726 5723 5719 5716 5711 5707 5703 5699 5696 5694 5691 5689 5685 5682 5679
5750 5727 5719 5713 5718 5730 5732 5731 5722 5712 5698 5692 5701 5721 5744 5749 5750 5752 5754 5754 5752 5750 5748 5745 5742 5740 5738 5735 5731 5727 5723 5720 5715 5710 5705 5701 5698 5695 5693 5689 5686 5683 5679 5676
5743 5726 5727 5730 5736 5735 5734 5733 5725 5718 5716 5710 5719 5723 5741 5749 5752 5756 5756 5754 5751 5748 5747 5746 5744 5741 5738 5734 5731 5728 5724 5719 5715 5709 5704 5701 5698 5694 5690 5686 5683 5680 5677 5673
5731 5724 5724 5727 5734 5732 5729 5733 5731 5726 5725 5722 5727 5731 5751 5754 5755 5755 5755 5752 5750 5750 5750 5749 5746 5743 5739 5736 5733 5728 5723 5719 5713 5708 5704 5700 5695 5691 5688 5684 5681 5677 5673 5670
5719 5716 5710 5707 5719 5723 5715 5731 5732 5730 5732 5730 5725 5740 5751 5749 5752 5755 5755 5754 5753 5753 5752 5750 5748 5746 5743 5740 5736 5729 5724 5717 5711 5706 5702 5697 5693 5689 5685 5682 5677 5673 5670 5666
5712 5706 5697 5696 5705 5695 5720 5741 5740 5733 5733 5735 5737 5743 5747 5749 5753 5757 5758 5756 5755 5755 5752 5751 5749 5746 5744 5740 5734 5728 5721 5714 5708 5703 5699 5695 5690 5686 5682 5677 5674 5670 5665 5661
5710 5702 5690 5686 5688 5699 5720 5733 5732 5725 5725 5736 5735 5741 5744 5747 5748 5749 5754 5755 5756 5757 5755 5753 5750 5746 5741 5735 5729 5722 5715 5709 5704 5700 5696 5693 5688 5683 5678 5673 5670 5666 5661 5657
5700 5699 5689 5682 5684 5686 5714 5732 5735 5726 5718 5737 5736 5736 5737 5739 5730 5737 5749 5750 5751 5752 5750 5747 5743 5738 5733 5729 5723 5716 5710 5704 5701 5699 5696 5691 5686 5680 5675 5671 5666 5661 5657 5653
5688 5685 5683 5679 5680 5693 5720 5728 5727 5705 5715 5734 5733 5733 5732 5731 5732 5737 5742 5744 5744 5744 5742 5740 5736 5732 5729 5724 5718 5710 5705 5702 5702 5697 5691 5686 5681 5676 5671 5666 5662 5656 5651 5647
5681 5678 5675 5672 5673 5687 5719 5720 5713 5714 5725 5727 5727 5727 5726 5727 5730 5733 5734 5735 5735 5734 5733 5732 5729 5725 5721 5717 5710 5704 5701 5701 5696 5690 5684 5679 5675 5671 5667 5660 5656 5650 5645 5640
5680 5683 5681 5681 5688 5704 5710 5713 5717 5717 5718 5721 5721 5722 5722 5722 5722 5724 5725 5725 5725 5724 5723 5722 5719 5714 5710 5708 5704 5699 5697 5692 5687 5681 5676 5672 5668 5663 5659 5654 5649 5644 5639 5634
5682 5685 5681 5683 5694 5702 5707 5711 5713 5714 5714 5715 5715 5715 5715 5713 5713 5714 5714 5714 5712 5712 5711 5710 5708 5704 5700 5698 5697 5694 5689 5684 5679 5673 5668 5663 5659 5655 5651 5646 5642 5638 5633 5629
5681 5680 5678 5680 5691 5697 5704 5706 5708 5708 5708 5708 5707 5707 5705 5705 5703 5703 5702 5702 5701 5700 5700 5699 5697 5694 5690 5687 5685 5682 5679 5675 5670 5665 5660 5655 5651 5647 5643 5639 5635 5632 5629 5626
5677 5677 5676 5680 5691 5690 5694 5701 5703 5700 5697 5697 5697 5695 5694 5694 5692 5692 5690 5689 5688 5688 5687 5686 5684 5682 5679 5676 5673 5671 5669 5665 5660 5655 5650 5645 5641 5637 5634 5630 5627 5625 5622 5619